Flag for Germany Weather past 2 weeks in Geislingen an der Steige, Baden-Württemberg, Germany

Now
29 °F

Overcast.


Feels Like: 25 °F
Forecast: 30 / 35 °F
Wind: 3 mph from West

Location: Stoetten

Current Time: Jan 25, 2015 at 4:20:15 PM

Latest Report: Jan 25, 2015 at 4:00 PM


Visibility: 7 mi

Pressure: 30.43 "Hg

Humidity: 97%

Dew point: 28 °F

Location of Geislingen an der SteigeLocation

Historic Weather in Geislingen an der Steige — Graph

°F

Geislingen an der Steige temperature yesterday

Maximum temperature yesterday: 28 °F (at 2:00 PM)
Minimum temperature yesterday: 26 °F (at 9:00 PM)
Average temperature yesterday: 27 °F

Past Weeks' High & Low Weather Summary

 TemperatureHumidityPressure
High51 °F (Jan 10, 3:00 PM)100% (Jan 11, 1:00 AM)30.46 "Hg (Jan 11, 1:00 AM)
Low26 °F (Jan 19, 9:00 AM)35% (Jan 13, 2:00 AM)29.72 "Hg (Jan 16, 4:00 PM)
Average33 °F87%30.04 "Hg
* Reported Jan 10 3:00 PM — Jan 25 3:00 PM, Geislingen an der Steige, Weather by CustomWeather, © 2014

Note: Actual official high and low records may vary slightly from our data, if they occured in-between our weather recording intervals... More about our weather records

Advertising

Geislingen an der Steige weather history for previous 24 hours

 ConditionsComfort  
Time TempWeatherWind HumidityBarometerVisibility
3:00 PM
Jan 25
28 °FSnow flurries. Low clouds.5 mph96%30.43 "Hg2 mi
2:00 PM28 °FFog.5 mph96%30.43 "Hg2 mi
1:00 PM28 °FLight snow. Ice fog.5 mph96%30.45 "Hg1 mi
12:00 PM28 °FFog.5 mph97%30.46 "Hg0 mi
11:00 AM28 °FFog.6 mph98%30.45 "Hg0 mi
10:00 AM27 °FFog.5 mph98%30.44 "Hg1 mi
9:00 AM27 °FFog.6 mph99%30.43 "Hg0 mi
8:00 AM27 °FFog.5 mph99%30.42 "Hg0 mi
7:00 AM27 °FFog.6 mph98%30.39 "Hg0 mi
6:00 AM27 °FLow clouds.7 mph97%30.37 "Hg7 mi
4:00 AM27 °FLow clouds.8 mph98%30.33 "Hg3 mi
3:00 AM27 °FLight snow. Low clouds.6 mph99%30.32 "Hg0 mi
2:00 AM27 °FSnow. Low clouds.6 mph98%30.30 "Hg0 mi
1:00 AM27 °FSnow. Low clouds.7 mph98%30.28 "Hg0 mi
12:00 AM26 °FLight snow. Low clouds.8 mph98%30.27 "Hg0 mi
11:00 PM
Jan 24
26 °FLight snow. Low clouds.7 mph98%30.27 "Hg0 mi
10:00 PM26 °FLight snow. Low clouds.7 mph97%30.26 "Hg0 mi
9:00 PM26 °FLight snow. Ice fog.7 mph98%30.25 "Hg0 mi
8:00 PM27 °FLow clouds.6 mph96%30.23 "Hg7 mi
7:00 PM28 °FSnow flurries. Low clouds.3 mph97%30.21 "Hg7 mi
6:00 PM28 °FSnow flurries. Low clouds.3 mph97%30.19 "Hg8 mi
5:00 PM28 °FLow clouds.3 mph96%30.17 "Hg8 mi
4:00 PM28 °FLow clouds.5 mph96%30.16 "Hg7 mi
Weather by CustomWeather, © 2014

See weather overviewHow to use our weather pages